This is the latest recevied weather packets stored in our database for station/object KC1TEM-13. If no packets are shown the sender has not sent any weather packets the latest 10 day(s).
| Time | Temp. | Humidity | Pressure | Rain* | Wind** | Luminosity | Snow |
|---|---|---|---|---|---|---|---|
| 1777633181 | 6.67° C | 81% | 1009.4 hPa | 0 mm | - | 34 W/m² | - |
| 1777632878 | 6.11° C | 82% | 1009.4 hPa | 0 mm | - | 31 W/m² | - |
| 1777632574 | 6.11° C | 83% | 1009.5 hPa | 0 mm | - | 28 W/m² | - |
| 1777632272 | 6.11° C | 84% | 1009.6 hPa | 0 mm | - | 28 W/m² | - |
| 1777631968 | 6.11° C | 85% | 1009.4 hPa | 0 mm | - | 25 W/m² | - |
| 1777631666 | 6.11° C | 84% | 1009.3 hPa | 0 mm | - | 23 W/m² | - |
| 1777631363 | 6.11° C | 84% | 1009.3 hPa | 0 mm | - | 21 W/m² | - |
| 1777631061 | 6.11° C | 85% | 1009.2 hPa | 0 mm | - | 19 W/m² | - |
| 1777630757 | 6.11° C | 85% | 1009.1 hPa | 0 mm | - | 21 W/m² | - |
| 1777630454 | 6.11° C | 85% | 1009.1 hPa | 0 mm | - | 22 W/m² | - |
| 1777630151 | 6.11° C | 86% | 1009 hPa | 0 mm | - | 16 W/m² | - |
| 1777629849 | 6.11° C | 86% | 1009.1 hPa | 0 mm | - | 15 W/m² | - |
| 1777629545 | 6.11° C | 87% | 1009 hPa | 0 mm | - | 11 W/m² | - |
| 1777629241 | 6.11° C | 87% | 1009.2 hPa | 0 mm | - | 8 W/m² | - |
| 1777628938 | 6.11° C | 86% | 1008.9 hPa | 0 mm | - | 6 W/m² | - |
| 1777628634 | 6.11° C | 86% | 1009 hPa | 0 mm | - | 4 W/m² | - |
| 1777628330 | 6.11° C | 87% | 1008.9 hPa | 0 mm | - | 2 W/m² | - |
| 1777628026 | 6.11° C | 88% | 1008.9 hPa | 0 mm | - | 1 W/m² | - |
| 1777627726 | 6.11° C | 88% | 1008.8 hPa | 0 mm | - | 1 W/m² | - |
| 1777627425 | 6.11° C | 87% | 1008.7 hPa | 0 mm | - | 0 W/m² | - |
| 1777627122 | 6.11° C | 87% | 1008.8 hPa | 0 mm | - | 0 W/m² | - |
| 1777626819 | 6.11° C | 86% | 1008.7 hPa | 0 mm | - | 0 W/m² | - |
| 1777626515 | 6.11° C | 86% | 1008.7 hPa | 0 mm | - | 0 W/m² | - |
| 1777626215 | 6.11° C | 86% | 1008.5 hPa | 0 mm | - | 0 W/m² | - |
| 1777625913 | 6.67° C | 86% | 1008.6 hPa | 0 mm | - | 0 W/m² | - |
* Rain latest hour (hover to see other rain measurements)
** Current wind speed in m/s (hover to see current wind gust speed)